Back to catalog

SJ-28

AliveScienceGEO
NORAD 66549·PAYLOAD·🇨🇳 China

Launched Nov 30, 2025 from Wenchang Space Launch Site

Loading…

TLE

FreshSource: Space-Track

Epoch: Sep 14, 2026, 14:21 UTC

1 66549U 25277A   26257.59824111 -.00000372  00000-0  00000-0 0  9999
2 66549   4.3137 270.7491 0001288  73.4585 341.5554  1.00271031  3051

Track SJ-28 in real time with AllMySat

Download on the App Store